Central Park, NY

11:20 PM EDT on June 18, 2018 (GMT -0400)
Central Park

Weather History for KNYC - January, 2017

Change the Weather History Date:

Sunday, January 1, 2017

  Actual Average Record
Temperature  
Mean Temperature 44 °F 33 °F  
Max Temperature 46 °F 39 °F 62 °F (1966)
Min Temperature 41 °F 28 °F -4 °F (1918)
Degree Days  
Heating Degree Days 22 32  
Month to date heating degree days 32  
Since 1 July heating degree days 1717  
Cooling Degree Days 0 0  
Month to date cooling degree days 0  
Year to date cooling degree days 0  
Moisture  
Dew Point 22 °F    
Average Humidity 41    
Maximum Humidity 50    
Minimum Humidity 31    
Precipitation  
Precipitation 0.00 in 0.12 in 2.05 in (1888)
Month to date precipitation 0.12  
Year to date precipitation 0.12  
Snow  
Snow 0.00 in 0.20 in 9.00 in (1869)
Month to date snowfall 0.2  
Since 1 July snowfall 5.3  
Snow Depth -    
Sea Level Pressure  
Sea Level Pressure 30.17 in    
Wind  
Wind Speed 5 mph (NNW)    
Max Wind Speed 12 mph    
Max Gust Speed 23 mph    
Visibility 10 miles    
Events      
T = Trace of Precipitation, MM = Missing Value Source: NWS Daily Summary

Daily Weather History Graph

Daily Weather History Graph

Search for Another Location

Airport or City:

Astronomy

Jan. 01, 2017 Rise Set
Actual Time 7:20 AM EST 4:39 PM EST
Civil Twilight 6:49 AM EST 5:10 PM EST
Nautical Twilight 6:14 AM EST 5:44 PM EST
Astronomical Twilight 5:41 AM EST 6:17 PM EST
Moon 9:25 AM EST (1/1) 8:13 PM EST (1/1)
Length of Visible Light 10h 20m
Length of Day
9h 19m
Waxing Crescent, 11% of the Moon is Illuminated
Jan 1
Waxing Crescent
Jan 5
First Quarter
Jan 12
Full
Jan 19
Last Quarter
Jan 27
New

Hourly Weather History & Observations

Time (EST) Temp. Windchill Dew Point Humidity Pressure Visibility Wind Dir Wind Speed Gust Speed Precip Events Conditions
12:51 AM 44.1 °F 42.5 °F 25.0 °F 47% 29.89 in 10.0 mi Variable 3.5 mph - N/A   Overcast
1:51 AM 44.1 °F 41.5 °F 26.1 °F 49% 29.90 in 10.0 mi West 4.6 mph 23.0 mph 0.00 in   Overcast
2:51 AM 45.0 °F - 25.0 °F 46% 29.91 in 10.0 mi North - - N/A   Overcast
3:51 AM 44.1 °F 38.6 °F 25.0 °F 47% 29.93 in 10.0 mi WSW 10.4 mph 18.4 mph N/A   Partly Cloudy
4:51 AM 45.0 °F 41.2 °F 24.1 °F 44% 29.94 in 10.0 mi WSW 6.9 mph - N/A   Mostly Cloudy
5:51 AM 44.1 °F 42.5 °F 25.0 °F 47% 29.99 in 10.0 mi Variable 3.5 mph - N/A   Clear
6:51 AM 44.1 °F - 25.0 °F 47% 30.01 in 10.0 mi North - - N/A   Clear
7:51 AM 44.1 °F 39.5 °F 26.1 °F 49% 30.04 in 10.0 mi West 8.1 mph - N/A   Clear
8:51 AM 44.1 °F 40.8 °F 26.1 °F 49% 30.09 in 10.0 mi Variable 5.8 mph 18.4 mph N/A   Clear
9:51 AM 46.0 °F 41.4 °F 28.0 °F 50% 30.14 in 10.0 mi WNW 9.2 mph 19.6 mph N/A   Scattered Clouds
10:51 AM 45.0 °F 39.3 °F 23.0 °F 42% 30.16 in 10.0 mi NW 11.5 mph 18.4 mph N/A   Clear
11:51 AM 46.0 °F - 23.0 °F 40% 30.17 in 10.0 mi North - - N/A   Clear
12:51 PM 46.9 °F - 21.9 °F 37% 30.17 in 10.0 mi North - - N/A   Clear
1:51 PM 46.9 °F - 19.9 °F 34% 30.19 in 10.0 mi Variable 4.6 mph - N/A   Clear
2:51 PM 46.9 °F - 18.0 °F 32% 30.22 in 10.0 mi Variable 4.6 mph - N/A   Clear
3:51 PM 46.9 °F - 18.0 °F 32% 30.25 in 10.0 mi West 5.8 mph - N/A   Clear
4:51 PM 46.0 °F - 17.1 °F 31% 30.30 in 10.0 mi Calm Calm - N/A   Clear
5:51 PM 45.0 °F - 16.0 °F 31% 30.32 in 10.0 mi Calm Calm - N/A   Clear
6:51 PM 43.0 °F 41.3 °F 19.0 °F 38% 30.35 in 10.0 mi ENE 3.5 mph - N/A   Clear
7:51 PM 41.0 °F 38.0 °F 19.9 °F 43% 30.38 in 10.0 mi ENE 4.6 mph - N/A   Clear
8:51 PM 42.1 °F 38.4 °F 18.0 °F 38% 30.40 in 10.0 mi NE 5.8 mph - N/A   Clear
9:51 PM 42.1 °F 39.2 °F 18.0 °F 38% 30.43 in 10.0 mi NE 4.6 mph - N/A   Clear
10:51 PM 41.0 °F 38.0 °F 19.0 °F 41% 30.44 in 10.0 mi ENE 4.6 mph - N/A   Clear
11:51 PM 41.0 °F 35.8 °F 19.9 °F 43% 30.42 in 10.0 mi ENE 8.1 mph - N/A   Clear